Weather History for Sturgis, MI

Change the Weather History Date:

Thursday, February 6, 2014

  Actual Average (KHAI) Record (KHAI)
Temperature  
Mean Temperature 2 °F -  
Max Temperature 12 °F 30 °F 52 °F (1965)
Min Temperature -7 °F 14 °F -7 °F (1979)
Degree Days  
Heating Degree Days 62    
Moisture  
Dew Point 2 °F    
Average Humidity 82    
Maximum Humidity 92    
Minimum Humidity 67    
Precipitation  
Precipitation 0.00 in - - ()
Sea Level Pressure  
Sea Level Pressure 30.32 in    
Wind  
Wind Speed 5 mph (SW)    
Max Wind Speed 16 mph    
Max Gust Speed 20 mph    
Visibility 8 miles    
Events Snow    
Averages and records for this station are not official NWS values.
T = Trace of Precipitation, MM = Missing Value Source: NWS Daily Summary

Daily Weather History Graph

Daily Weather History Graph

Search for Another Location

Airport:

Trip Planner

Search our weather history database for the weather conditions in past years. The results will help you decide how hot, cold, wet, or windy it might be!

Date:

Astronomy

Feb. 06, 2014 Rise Set
Actual Time 7:48 AM EST 6:03 PM EST
Civil Twilight 7:19 AM EST 6:32 PM EST
Nautical Twilight 6:46 AM EST 7:05 PM EST
Astronomical Twilight 6:14 AM EST 7:38 PM EST
Moon 11:34 AM EST (2/6) 1:03 AM EST (2/6)
Length of Visible Light 11h 13m
Length of Day
10h 14m
Waxing Crescent, 49% of the Moon is Illuminated
Feb 6
Waxing Crescent
Feb 6
First Quarter
Feb 14
Full
Feb 22
Last Quarter
Mar 1
New

Hourly Weather History & Observations

Time (EST) Temp. Windchill Dew Point Humidity Pressure Visibility Wind Dir Wind Speed Gust Speed Precip Events Conditions
12:14 AM 12.2 °F - 6.8 °F 79% 30.36 in 7.0 mi Calm Calm - N/A Snow Light Snow
12:35 AM 12.2 °F - 6.8 °F 79% 30.35 in 10.0 mi Calm Calm - N/A   Overcast
12:54 AM 12.2 °F - 8.6 °F 85% 30.34 in 10.0 mi Calm Calm - N/A Snow Light Snow
1:15 AM 10.4 °F - 6.8 °F 85% 30.34 in 10.0 mi Calm Calm - N/A Snow Light Snow
1:35 AM 10.4 °F - 6.8 °F 85% 30.35 in 10.0 mi Calm Calm - N/A Snow Light Snow
1:54 AM 10.4 °F - 8.6 °F 92% 30.34 in 7.0 mi Calm Calm - N/A Snow Light Snow
2:15 AM 10.4 °F - 6.8 °F 85% 30.34 in 4.0 mi Calm Calm - N/A Snow Light Snow
2:34 AM 10.4 °F - 8.6 °F 92% 30.33 in 3.0 mi Calm Calm - N/A Snow Light Snow
2:55 AM 10.4 °F - 8.6 °F 92% 30.33 in 5.0 mi Calm Calm - N/A Snow Light Snow
3:15 AM 12.2 °F - 8.6 °F 85% 30.33 in 5.0 mi Calm Calm - N/A Snow Light Snow
3:34 AM 10.4 °F 4.0 °F 8.6 °F 92% 30.33 in 3.0 mi South 3.5 mph - N/A Snow Light Snow
3:55 AM 10.4 °F 4.0 °F 8.6 °F 92% 30.33 in 7.0 mi South 3.5 mph - N/A Snow Light Snow
4:15 AM 12.2 °F - 8.6 °F 85% 30.33 in 5.0 mi Calm Calm - N/A Snow Light Snow
4:34 AM 12.2 °F - 8.6 °F 85% 30.32 in 4.0 mi Calm Calm - N/A Snow Light Snow
4:55 AM 12.2 °F 6.1 °F 10.4 °F 92% 30.32 in 2.5 mi SSW 3.5 mph - N/A Snow Light Snow
5:14 AM 12.2 °F 4.3 °F 10.4 °F 92% 30.33 in 7.0 mi South 4.6 mph - N/A Snow Light Snow
5:34 AM 12.2 °F 4.3 °F 10.4 °F 92% 30.33 in 7.0 mi SSW 4.6 mph - N/A Snow Light Snow
5:55 AM 12.2 °F 4.3 °F 10.4 °F 92% 30.33 in 7.0 mi SW 4.6 mph - N/A Snow Light Snow
6:14 AM 10.4 °F -0.4 °F 8.6 °F 92% 30.32 in 7.0 mi SW 6.9 mph - N/A Snow Light Snow
6:35 AM 12.2 °F 2.9 °F 10.4 °F 92% 30.33 in 7.0 mi SW 5.8 mph - N/A Snow Light Snow
6:55 AM 12.2 °F 4.3 °F 10.4 °F 92% 30.33 in 7.0 mi SW 4.6 mph - N/A Snow Light Snow
7:14 AM 12.2 °F 2.9 °F 10.4 °F 92% 30.33 in 10.0 mi SW 5.8 mph - N/A Snow Light Snow
7:35 AM 10.4 °F 0.8 °F 8.6 °F 92% 30.32 in 10.0 mi SW 5.8 mph - N/A   Overcast
7:55 AM 10.4 °F 2.2 °F 8.6 °F 92% 30.31 in 7.0 mi SW 4.6 mph - N/A Snow Light Snow
8:14 AM 10.4 °F 0.8 °F 6.8 °F 85% 30.31 in 5.0 mi SW 5.8 mph - N/A Snow Light Snow
8:35 AM 8.6 °F -1.3 °F 6.8 °F 92% 30.32 in 5.0 mi SSW 5.8 mph - N/A Snow Light Snow
8:55 AM 8.6 °F -2.6 °F 6.8 °F 92% 30.32 in 3.0 mi SW 6.9 mph - N/A Snow Light Snow
9:14 AM 8.6 °F -5.5 °F 6.8 °F 92% 30.33 in 7.0 mi SW 10.4 mph - N/A Snow Light Snow
9:35 AM 10.4 °F -3.3 °F 6.8 °F 85% 30.33 in 5.0 mi SW 10.4 mph - N/A Snow Light Snow
9:54 AM 10.4 °F -2.4 °F 6.8 °F 85% 30.33 in 5.0 mi SW 9.2 mph - N/A Snow Light Snow
10:15 AM 10.4 °F -4.1 °F 8.6 °F 92% 30.33 in 5.0 mi SW 11.5 mph - N/A Snow Light Snow
10:35 AM 10.4 °F -4.1 °F 8.6 °F 92% 30.34 in 4.0 mi SW 11.5 mph - N/A Snow Light Snow
10:54 AM 10.4 °F -6.0 °F 6.8 °F 85% 30.34 in 4.0 mi SW 15.0 mph - N/A Snow Light Snow
11:15 AM 10.4 °F -4.8 °F 6.8 °F 85% 30.34 in 7.0 mi SW 12.7 mph - N/A Snow Light Snow
11:35 AM 10.4 °F -6.0 °F 5.0 °F 79% 30.35 in 10.0 mi SW 15.0 mph - N/A Snow Light Snow
11:55 AM 10.4 °F -4.8 °F 3.2 °F 73% 30.34 in 10.0 mi SW 12.7 mph - N/A   Scattered Clouds
12:14 PM 10.4 °F -6.0 °F 3.2 °F 73% 30.34 in 10.0 mi SW 15.0 mph 19.6 mph N/A   Clear
12:35 PM 10.4 °F -6.6 °F 3.2 °F 73% 30.33 in 10.0 mi SW 16.1 mph - N/A   Clear
12:55 PM 10.4 °F -5.4 °F 3.2 °F 73% 30.32 in 10.0 mi SW 13.8 mph 19.6 mph N/A   Clear
1:14 PM 10.4 °F -6.0 °F 3.2 °F 73% 30.31 in 10.0 mi SW 15.0 mph - N/A   Clear
1:35 PM 8.6 °F -8.3 °F 1.4 °F 73% 30.31 in 10.0 mi SW 15.0 mph - N/A   Scattered Clouds
1:55 PM 8.6 °F -7.0 °F 1.4 °F 73% 30.30 in 10.0 mi SW 12.7 mph - N/A   Mostly Cloudy
2:14 PM 8.6 °F -7.0 °F 1.4 °F 73% 30.30 in 10.0 mi SW 12.7 mph - N/A   Mostly Cloudy
2:35 PM 8.6 °F -7.7 °F 1.4 °F 73% 30.30 in 10.0 mi SW 13.8 mph 17.3 mph N/A   Mostly Cloudy
2:55 PM 8.6 °F -7.0 °F 1.4 °F 73% 30.30 in 10.0 mi WSW 12.7 mph 18.4 mph N/A   Scattered Clouds
3:14 PM 8.6 °F -7.7 °F 1.4 °F 73% 30.30 in 10.0 mi WSW 13.8 mph - N/A   Scattered Clouds
3:35 PM 8.6 °F -7.7 °F 1.4 °F 73% 30.30 in 7.0 mi WSW 13.8 mph - N/A   Mostly Cloudy
3:54 PM 8.6 °F -7.7 °F -0.4 °F 67% 30.30 in 10.0 mi WSW 13.8 mph - N/A   Overcast
4:15 PM 6.8 °F -10.7 °F -0.4 °F 72% 30.30 in 10.0 mi SW 15.0 mph - N/A   Overcast
4:35 PM 6.8 °F -8.6 °F -0.4 °F 72% 30.29 in 10.0 mi WSW 11.5 mph - N/A   Overcast
4:54 PM 6.8 °F -8.6 °F -0.4 °F 72% 30.29 in 10.0 mi WSW 11.5 mph - N/A   Overcast
5:15 PM 6.8 °F -7.8 °F -0.4 °F 72% 30.30 in 10.0 mi WSW 10.4 mph - N/A   Overcast
5:34 PM 3.2 °F -11.3 °F -2.2 °F 78% 30.30 in 10.0 mi SW 9.2 mph - N/A   Overcast
5:55 PM 3.2 °F -10.3 °F -2.2 °F 78% 30.30 in 10.0 mi SW 8.1 mph - N/A   Overcast
6:15 PM 1.4 °F -15.3 °F -4.0 °F 78% 30.30 in 10.0 mi SW 11.5 mph - N/A   Overcast
6:34 PM 1.4 °F -14.5 °F -5.8 °F 72% 30.30 in 10.0 mi SW 10.4 mph - N/A   Overcast
6:55 PM -0.4 °F -15.7 °F -7.6 °F 72% 30.31 in 10.0 mi SW 9.2 mph - N/A   Scattered Clouds
7:15 PM -0.4 °F -17.6 °F -5.8 °F 78% 30.32 in 10.0 mi SW 11.5 mph - N/A   Mostly Cloudy
7:34 PM -0.4 °F -16.7 °F -5.8 °F 78% 30.32 in 10.0 mi WSW 10.4 mph - N/A   Overcast
7:55 PM -0.4 °F -17.6 °F -7.6 °F 72% 30.32 in 10.0 mi WSW 11.5 mph - N/A   Overcast
8:14 PM -2.2 °F -18.0 °F -7.6 °F 78% 30.32 in 10.0 mi WSW 9.2 mph - N/A   Scattered Clouds
8:35 PM -2.2 °F -19.9 °F -9.4 °F 71% 30.32 in 10.0 mi WSW 11.5 mph - N/A   Clear
8:55 PM -2.2 °F -18.9 °F -9.4 °F 71% 30.33 in 10.0 mi WSW 10.4 mph - N/A   Clear
9:14 PM -4.0 °F -20.2 °F -9.4 °F 78% 30.33 in 10.0 mi SW 9.2 mph - N/A   Scattered Clouds
9:35 PM -2.2 °F -18.0 °F -9.4 °F 71% 30.33 in 10.0 mi SW 9.2 mph - N/A   Mostly Cloudy
9:55 PM -4.0 °F -19.0 °F -9.4 °F 78% 30.34 in 10.0 mi SW 8.1 mph - N/A   Overcast
10:14 PM -5.8 °F -21.2 °F -11.2 °F 77% 30.34 in 10.0 mi SW 8.1 mph - N/A   Scattered Clouds
10:35 PM -7.6 °F -20.6 °F -11.2 °F 84% 30.34 in 10.0 mi SW 5.8 mph - N/A   Clear
10:55 PM -7.6 °F -18.8 °F -13.0 °F 77% 30.34 in 10.0 mi SW 4.6 mph - N/A   Clear
11:14 PM -7.6 °F -16.5 °F -11.2 °F 84% 30.33 in 10.0 mi SW 3.5 mph - N/A   Clear
11:35 PM -7.6 °F -18.8 °F -11.2 °F 84% 30.33 in 10.0 mi SSW 4.6 mph - N/A   Clear
11:55 PM -7.6 °F -20.6 °F -11.2 °F 84% 30.34 in 10.0 mi SSW 5.8 mph - N/A   Clear